Location: Abraham Lincoln Continuation High School
(33.9711°N, 117.3662°W)
Time: 14:34:38
(UTC+00:00)

Cosmos 1934 Rocket - Pass Details

Date: 21 September 2020
Orbit: 938 x 999 km, 83.0° (Epoch: 28 October)

Event Time Altitude Azimuth Distance (km) Brightness Sun altitude
Rises 10:49:05 0° 357° (N) 3,603 7.3 -34.4°
Reaches altitude 10° 10:51:36 10° 0° (N) 2,656 6.5 -33.9°
Enters shadow 10:57:11 64° 58° (ENE) 1,041 4.2 -32.9°
